Flag for Norway Weather past 2 weeks in Kristiansund, Norway

Now
45 °F

Partly sunny.


Feels Like: 41 °F
Forecast: 37 / 45 °F
Wind: 7 mph from Northeast

Location: Kristiansund / Kvernberget

Current Time: Apr 25, 2015 at 2:34:03 PM

Latest Report: Apr 25, 2015 at 1:50 PM


Visibility: N/A

Pressure: 29.33 "Hg

Humidity: 57%

Dew point: 30 °F

Location of KristiansundLocation

Historic Weather in Kristiansund — Graph

°F

Kristiansund temperature yesterday

Maximum temperature yesterday: 45 °F (at 10:50 AM)
Minimum temperature yesterday: 34 °F (at 1:50 AM)
Average temperature yesterday: 38 °F

Past Weeks' High & Low Weather Summary

 TemperatureHumidityPressure
High57 °F (Apr 11, 4:50 PM)100% (Apr 13, 1:20 AM)30.48 "Hg (Apr 13, 1:20 AM)
Low32 °F (Apr 13, 1:20 AM)38% (Apr 11, 2:20 PM)29.33 "Hg (Apr 25, 1:20 PM)
Average41 °F77%29.93 "Hg
* Reported Apr 10 1:20 PM — Apr 25 1:20 PM, Kristiansund, Weather by CustomWeather, © 2015

Note: Actual official high and low records may vary slightly from our data, if they occured in-between our weather recording intervals... More about our weather records

Advertising

Kristiansund weather history for previous 24 hours

 ConditionsComfort  
Time TempWeatherWind HumidityBarometerVisibility
1:20 PM
Sat, Apr 25
45 °FPartly sunny.7 mph61%29.33 "HgN/A
12:50 PM45 °FPartly sunny.5 mph57%29.36 "HgN/A
12:20 PM43 °FPartly sunny.7 mph66%29.39 "HgN/A
11:50 AM43 °FPartly sunny.5 mph66%29.39 "HgN/A
11:20 AM43 °FPartly sunny.5 mph66%29.39 "HgN/A
10:50 AM41 °FScattered clouds.2 mph66%29.42 "HgN/A
10:20 AM41 °FBroken clouds.2 mph66%29.42 "HgN/A
9:50 AM39 °FBroken clouds.3 mph70%29.42 "HgN/A
9:20 AM39 °FBroken clouds.3 mph65%29.42 "HgN/A
8:50 AM39 °FPartly sunny.2 mph65%29.42 "HgN/A
8:20 AM37 °FScattered showers. Partly sunny.1 mph70%29.42 "HgN/A
7:50 AM37 °FScattered showers. Partly sunny.5 mph65%29.42 "HgN/A
7:20 AM37 °FSunny.8 mph65%29.45 "Hg10 mi
6:50 AM37 °FSunny.7 mph65%29.45 "Hg10 mi
6:20 AM37 °FClear.6 mph65%29.45 "Hg10 mi
5:50 AM36 °FPassing clouds.6 mph70%29.45 "HgN/A
5:20 AM37 °FPassing clouds.8 mph65%29.47 "HgN/A
4:50 AM37 °FPassing clouds.8 mph65%29.47 "HgN/A
4:20 AM37 °FOvercast.6 mph60%29.47 "HgN/A
3:50 AM37 °FMostly cloudy.6 mph65%29.50 "HgN/A
3:20 AM37 °FPassing clouds.8 mph65%29.50 "HgN/A
2:50 AM37 °FPassing clouds.10 mph65%29.50 "HgN/A
2:20 AM37 °FChilly.6 mph65%29.50 "HgN/A
1:20 AM36 °FPassing clouds.12 mph70%29.53 "HgN/A
12:50 AM36 °FPassing clouds.10 mph75%29.53 "HgN/A
12:20 AM36 °FPassing clouds.9 mph75%29.53 "HgN/A
11:50 PM
Fri, Apr 24
37 °FPassing clouds.10 mph70%29.56 "HgN/A
11:20 PM36 °FPassing clouds.9 mph81%29.56 "HgN/A
10:50 PM36 °FClear.8 mph75%29.56 "Hg10 mi
10:20 PM36 °FSunny.6 mph81%29.56 "Hg10 mi
9:50 PM34 °FPassing clouds.5 mph75%29.59 "HgN/A
9:20 PM36 °FScattered clouds.3 mph75%29.59 "HgN/A
8:50 PM37 °FScattered clouds.2 mph65%29.59 "HgN/A
8:20 PM37 °FPartly sunny.5 mph70%29.59 "HgN/A
7:50 PM39 °FPartly sunny.9 mph56%29.59 "HgN/A
7:20 PM41 °FScattered showers. Partly sunny.9 mph53%29.59 "HgN/A
6:50 PM41 °FScattered clouds.10 mph53%29.59 "HgN/A
6:20 PM41 °FScattered clouds.6 mph57%29.59 "HgN/A
5:50 PM43 °FScattered clouds.5 mph61%29.59 "HgN/A
5:20 PM41 °FScattered clouds.8 mph66%29.62 "HgN/A
4:50 PM37 °FBroken clouds.13 mph81%29.62 "HgN/A
4:20 PM39 °FBroken clouds.9 mph61%29.62 "HgN/A
3:50 PM39 °FScattered showers. Broken clouds.16 mph75%29.62 "HgN/A
3:20 PM37 °FScattered showers. Scattered clouds.21 mph81%29.62 "HgN/A
2:50 PM39 °FScattered showers. Partly sunny.18 mph70%29.62 "HgN/A
2:20 PM39 °FScattered showers. Partly sunny.15 mph56%29.59 "HgN/A
Weather by CustomWeather, © 2015

See weather overviewHow to use our weather pages